When you browse on this site, cookies collect data to enhance your experience and personalize the content and advertising you see.
Visit our Privacy Policy to learn more. By continuing to use the site, you agree to this use of cookies and data.
  • In Germany
  • List of Countries
  • For 7 days
  • Water Temperature
  • Weather Map
  • Weather Widgets
  • user-avatar
    Login

    Hourly Weather Geertruidenberg

    Today, 23 February, Sunday

    Time Temperature Precipitation Wind Pressure Humidity
    00:00 +8°C° 0 mm 7 mps 765 mmHg 77%
    01:00 +8°C° 0.9 mm 7 mps 764 mmHg 81%
    02:00 +8°C° 0.9 mm 7 mps 764 mmHg 85%
    03:00 +6°C° 0.9 mm 7 mps 763 mmHg 88%
    04:00 +6°C° 1.9 mm 7 mps 762 mmHg 90%
    05:00 +6°C° 1.9 mm 7 mps 761 mmHg 91%
    06:00 +7°C° 1.9 mm 6 mps 760 mmHg 93%
    07:00 +8°C° 2 mm 9 mps 759 mmHg 89%
    08:00 +9°C° 2 mm 11 mps 758 mmHg 86%
    09:00 +12°C° 2 mm 14 mps 756 mmHg 82%
    10:00 +12°C° 0 mm 14 mps 756 mmHg 81%
    11:00 +12°C° 0 mm 14 mps 757 mmHg 80%
    12:00 +12°C° 0 mm 14 mps 757 mmHg 80%
    13:00 +10°C° 0.4 mm 13 mps 757 mmHg 80%
    14:00 +10°C° 0.4 mm 12 mps 758 mmHg 80%
    15:00 +9°C° 0.4 mm 10 mps 758 mmHg 81%
    16:00 +7°C° 0 mm 9 mps 760 mmHg 76%
    17:00 +6°C° 0 mm 8 mps 761 mmHg 71%
    18:00 +4°C° 0 mm 7 mps 763 mmHg 66%
    19:00 +4°C° 0 mm 6 mps 764 mmHg 67%
    20:00 +3°C° 0 mm 5 mps 765 mmHg 68%
    21:00 +4°C° 0 mm 4 mps 766 mmHg 69%
    22:00 +4°C° 0 mm 4 mps 767 mmHg 71%
    23:00 +3°C° 0 mm 3 mps 767 mmHg 73%

    Tomorrow, 24 February, Monday

    Time Temperature Precipitation Wind Pressure Humidity
    00:00 +3°C° 0 mm 3 mps 768 mmHg 74%
    01:00 +3°C° 0 mm 3 mps 767 mmHg 76%
    02:00 +4°C° 0 mm 2 mps 767 mmHg 77%
    03:00 +3°C° 0 mm 2 mps 767 mmHg 78%
    04:00 +4°C° 0.1 mm 2 mps 766 mmHg 80%
    05:00 +4°C° 0.1 mm 2 mps 766 mmHg 82%
    06:00 +4°C° 0.1 mm 2 mps 765 mmHg 84%
    07:00 +3°C° 0.3 mm 3 mps 764 mmHg 85%
    08:00 +3°C° 0.3 mm 4 mps 763 mmHg 85%
    09:00 +2°C° 0.3 mm 5 mps 762 mmHg 86%
    10:00 +4°C° 0.2 mm 6 mps 760 mmHg 88%
    11:00 +7°C° 0.2 mm 6 mps 759 mmHg 89%
    12:00 +9°C° 0.2 mm 7 mps 757 mmHg 91%
    13:00 +9°C° 0 mm 8 mps 756 mmHg 88%
    14:00 +8°C° 0 mm 9 mps 755 mmHg 85%
    15:00 +9°C° 0 mm 10 mps 754 mmHg 82%
    16:00 +8°C° 0.4 mm 10 mps 753 mmHg 83%
    17:00 +8°C° 0.4 mm 11 mps 753 mmHg 84%
    18:00 +8°C° 0.4 mm 11 mps 752 mmHg 86%
    19:00 +8°C° 0.5 mm 11 mps 752 mmHg 85%
    20:00 +8°C° 0.5 mm 10 mps 752 mmHg 85%
    21:00 +8°C° 0.5 mm 10 mps 751 mmHg 85%
    22:00 +7°C° 0 mm 9 mps 752 mmHg 81%
    23:00 +7°C° 0 mm 9 mps 752 mmHg 78%

    Day after tomorrow, 25 February, Tuesday

    Time Temperature Precipitation Wind Pressure Humidity
    00:00 +6°C° 0 mm 8 mps 752 mmHg 74%
    01:00 +5°C° 0 mm 8 mps 752 mmHg 73%
    02:00 +5°C° 0 mm 7 mps 752 mmHg 73%
    03:00 +4°C° 0 mm 7 mps 752 mmHg 72%
    04:00 +4°C° 0 mm 7 mps 752 mmHg 73%
    05:00 +3°C° 0 mm 7 mps 752 mmHg 73%
    06:00 +3°C° 0 mm 7 mps 752 mmHg 73%
    07:00 +3°C° 0 mm 7 mps 752 mmHg 71%
    08:00 +4°C° 0 mm 8 mps 751 mmHg 70%
    09:00 +3°C° 0 mm 9 mps 751 mmHg 68%
    10:00 +5°C° 0.1 mm 9 mps 751 mmHg 65%
    11:00 +5°C° 0.1 mm 9 mps 751 mmHg 62%
    12:00 +6°C° 0.1 mm 10 mps 750 mmHg 59%
    13:00 +5°C° 0.3 mm 9 mps 750 mmHg 60%
    14:00 +5°C° 0.3 mm 9 mps 750 mmHg 61%
    15:00 +5°C° 0.3 mm 9 mps 749 mmHg 62%
    16:00 +4°C° 0 mm 7 mps 749 mmHg 65%
    17:00 +4°C° 0 mm 6 mps 748 mmHg 67%
    18:00 +4°C° 0 mm 4 mps 748 mmHg 70%
    19:00 +4°C° 0.3 mm 4 mps 747 mmHg 74%
    20:00 +3°C° 0.3 mm 4 mps 747 mmHg 78%
    21:00 +3°C° 0.3 mm 4 mps 746 mmHg 82%
    22:00 +3°C° 0.2 mm 3 mps 745 mmHg 85%
    23:00 +3°C° 0.2 mm 3 mps 744 mmHg 87%

    26 February, Wednesday

    Time Temperature Precipitation Wind Pressure Humidity
    00:00 +2°C° 0.2 mm 3 mps 744 mmHg 90%
    01:00 +1°C° 1.7 mm 4 mps 743 mmHg 91%
    02:00 +1°C° 1.7 mm 5 mps 743 mmHg 92%
    03:00 -1°C° 1.7 mm 6 mps 743 mmHg 92%
    04:00 -1°C° 1 mm 6 mps 743 mmHg 93%
    05:00 0°C° 1 mm 5 mps 743 mmHg 94%
    06:00 0°C° 1 mm 4 mps 743 mmHg 94%
    07:00 +1°C° 0.1 mm 4 mps 744 mmHg 89%
    08:00 +3°C° 0.1 mm 4 mps 745 mmHg 84%
    09:00 +3°C° 0.1 mm 5 mps 746 mmHg 79%
    10:00 +3°C° 0.2 mm 5 mps 748 mmHg 76%
    11:00 +4°C° 0.2 mm 6 mps 749 mmHg 74%
    12:00 +4°C° 0.2 mm 7 mps 750 mmHg 71%
    13:00 +4°C° 0.3 mm 7 mps 751 mmHg 70%
    14:00 +4°C° 0.3 mm 7 mps 751 mmHg 70%
    15:00 +4°C° 0.3 mm 7 mps 752 mmHg 69%
    16:00 +3°C° 0.1 mm 6 mps 753 mmHg 71%
    17:00 +2°C° 0.1 mm 5 mps 753 mmHg 72%
    18:00 +3°C° 0.1 mm 4 mps 754 mmHg 74%
    19:00 +1°C° 0 mm 4 mps 755 mmHg 76%
    20:00 +1°C° 0 mm 4 mps 755 mmHg 78%
    21:00 +1°C° 0 mm 4 mps 756 mmHg 80%
    22:00 +1°C° 0.1 mm 4 mps 756 mmHg 81%
    23:00 +1°C° 0.1 mm 4 mps 756 mmHg 82%

    27 February, Thursday

    Time Temperature Precipitation Wind Pressure Humidity
    00:00 +1°C° 0.1 mm 4 mps 757 mmHg 83%
    01:00 +1°C° 0.1 mm 4 mps 757 mmHg 84%
    02:00 0°C° 0.1 mm 4 mps 757 mmHg 84%
    03:00 0°C° 0.1 mm 4 mps 758 mmHg 85%
    04:00 0°C° 0 mm 4 mps 758 mmHg 86%
    05:00 -1°C° 0 mm 4 mps 758 mmHg 86%
    06:00 -1°C° 0 mm 4 mps 758 mmHg 86%
    07:00 0°C° 0 mm 4 mps 757 mmHg 82%
    08:00 0°C° 0 mm 5 mps 757 mmHg 78%
    09:00 +1°C° 0 mm 6 mps 757 mmHg 74%
    10:00 0°C° 0.2 mm 7 mps 756 mmHg 81%
    11:00 0°C° 0.2 mm 8 mps 755 mmHg 87%
    12:00 0°C° 0.2 mm 8 mps 754 mmHg 93%
    13:00 0°C° 0.9 mm 9 mps 752 mmHg 93%
    14:00 0°C° 0.9 mm 9 mps 751 mmHg 93%
    15:00 0°C° 0.9 mm 9 mps 749 mmHg 93%
    16:00 +2°C° 0.2 mm 8 mps 749 mmHg 93%
    17:00 +4°C° 0.2 mm 8 mps 748 mmHg 93%
    18:00 +6°C° 0.2 mm 7 mps 747 mmHg 93%
    19:00 +6°C° 0.1 mm 7 mps 747 mmHg 89%
    20:00 +6°C° 0.1 mm 7 mps 748 mmHg 85%
    21:00 +6°C° 0.1 mm 8 mps 748 mmHg 82%
    22:00 +6°C° 0 mm 8 mps 749 mmHg 82%
    23:00 +5°C° 0 mm 7 mps 749 mmHg 82%

    28 February, Friday

    Time Temperature Precipitation Wind Pressure Humidity
    00:00 +5°C° 0 mm 7 mps 750 mmHg 82%
    01:00 +4°C° 0 mm 7 mps 750 mmHg 82%
    02:00 +4°C° 0 mm 7 mps 750 mmHg 82%
    03:00 +4°C° 0 mm 6 mps 750 mmHg 82%
    04:00 +4°C° 0 mm 6 mps 750 mmHg 82%
    05:00 +4°C° 0 mm 6 mps 750 mmHg 83%
    06:00 +3°C° 0 mm 5 mps 751 mmHg 83%
    07:00 +5°C° 0.1 mm 5 mps 751 mmHg 82%
    08:00 +5°C° 0.1 mm 5 mps 751 mmHg 81%
    09:00 +6°C° 0.1 mm 5 mps 751 mmHg 80%
    10:00 +6°C° 0.5 mm 4 mps 751 mmHg 83%
    11:00 +5°C° 0.5 mm 3 mps 750 mmHg 86%
    12:00 +6°C° 0.5 mm 2 mps 750 mmHg 89%
    13:00 +5°C° 1.4 mm 3 mps 749 mmHg 91%
    14:00 +7°C° 1.4 mm 3 mps 749 mmHg 94%
    15:00 +7°C° 1.4 mm 3 mps 748 mmHg 96%
    16:00 +7°C° 1.4 mm 5 mps 747 mmHg 94%
    17:00 +8°C° 1.4 mm 7 mps 746 mmHg 92%
    18:00 +8°C° 1.4 mm 9 mps 746 mmHg 90%
    19:00 +8°C° 0.9 mm 9 mps 745 mmHg 88%
    20:00 +8°C° 0.9 mm 9 mps 744 mmHg 87%
    21:00 +8°C° 0.9 mm 10 mps 744 mmHg 85%
    22:00 +8°C° 0.1 mm 9 mps 743 mmHg 83%
    23:00 +8°C° 0.1 mm 9 mps 742 mmHg 81%
    Show more